Other Public Products
Issued by NWS Grand Forks, ND

Home | Current Version | Previous Version | Graphics & Text | Print | Product List | Glossary On
Versions: 1 2 3 4 5 6 7 8 9 10 11 12 13 14 15 16 17 18 19 20 21 22 23 24 25 26 27 28 29 30 31 32 33 34 35 36 37 38 39 40 41 42 43 44 45 46 47 48 49 50
000
FPUS83 KFGF 051731
OPUFGF
PRAIRIE TO PINES WEATHER ROUNDUP
NATIONAL WEATHER SERVICE EASTERN NORTH DAKOTA/GRAND FORKS ND
1200 PM CDT SUN JUL 05 2015

 **SATELLITE DATA USED TO AUGMENT SKY COVER AT AUTOMATED STATIONS**
 *****  WEATHER ACROSS EASTERN NORTH DAKOTA  *****

CITY           SKY/WX    TMP DP  RH WIND       PRES   REMARKS
GRAND FORKS    TSTM      66  66 100 N6        29.77F
GRAND FORKS AF RAIN      66  66 100 E8        29.77F FOG
GRAND CITY NWS   N/A     64 N/A N/A N6          N/A
BUXTON         NOT AVBL
DEVILS LAKE    CLOUDY    66  61  82 NE13      29.76F
FARGO          CLOUDY    84  69  60 SW16      29.74S
WAHPETON ARPT  MOSUNNY   82  64  54 S9        29.77S
$$

 *****  WEATHER ACROSS CENTRAL AND WESTERN NORTH DAKOTA  *****

CITY           SKY/WX    TMP DP  RH WIND       PRES   REMARKS
JAMESTOWN      CLOUDY    70  64  81 N6        29.79R
BISMARCK       LGT RAIN  68  64  87 E10       29.78F
MINOT          PTSUNNY   70  62  76 NW8       29.85R HAZE
MINOT AFB      CLOUDY    73  73  99 NW13      29.84R
GARRISON         N/A     71  62  73 N7        29.85R
WILLISTON      CLOUDY    74  56  53 N17G25    29.95R HAZE
DICKINSON      PTSUNNY   70  61  73 N12G23    29.89R
HETTINGER      PTSUNNY   69  62  78 NE18      29.85R
$$

 *****  OTHER OBSERVATIONS NORTHEAST NORTH DAKOTA  *****

CITY           SKY/WX    TMP DP  RH WIND       PRES   REMARKS
WALHALLA       LGT RAIN  66  66 100 MISG      29.78R
LANGDON        CLOUDY    66  66 100 N9        29.79R
CAVALIER       LGT RAIN  66  66 100 E5        29.76S
GRAFTON        RAIN      66  66 100 CALM      29.79R
CANDO          FAIR      70  66  88 NE8       29.79R
FORT TOTTEN    NOT AVBL
ROLLA          PTSUNNY   66  66 100 N10       29.84R FOG
RUGBY          NOT AVBL
 ***** THE ABOVE OBSERVATIONS ARE NON NWS ARE NOT QUALITY
        CONTROLLED AND MAY MIS-REPORT RAIN FOR SNOW...
$$

 *****  OTHER OBSERVATIONS SOUTHEAST NORTH DAKOTA *****

CITY           SKY/WX    TMP DP  RH WIND       PRES   REMARKS
COOPERSTOWN    NOT AVBL
VALLEY CITY    CLOUDY    72  70  94 N14G21    29.79R
OAKES            N/A     81  75  83 SW14G21   29.78R
GWINNER        FAIR      82  70  65 SW12      29.78R
SHEYENNE NWR     N/A     83  70  63 SW10      29.95S
BUFFALO        NOT AVBL
WYNDMERE       NOT AVBL
 ***** THE ABOVE OBSERVATIONS ARE NON NWS ARE NOT QUALITY
       CONTROLLED AND MAY MIS-REPORT RAIN FOR SNOW...
$$

  *****  WEATHER ACROSS NORTHERN MINNESOTA  *****

CITY           SKY/WX    TMP DP  RH WIND       PRES   REMARKS
FLAG ISLAND    CLOUDY    70  64  83 SE6       29.75F
WARROAD        TSTM      66  63  88 CALM      29.79S
ROSEAU         TSTM      66  63  88 E10       29.74F
HALLOCK        TSTM      66  64  94 NE3       29.77R
THF RVR FALLS  CLOUDY    72  68  88 SE6       29.79R
HALSTAD        NOT AVBL
FOSSTON        CLOUDY    77  66  69 SW13      29.80R
BAUDETTE         N/A     71  66  84 N6        29.78S
WASKISH        CLOUDY    73  70  88 CALM      29.78F
CROOKSTON      CLOUDY    72  68  88 NW25G31   29.83R
$$
  *****  WEATHER ACROSS CENTRAL AND WEST MINNESOTA  *****

CITY           SKY/WX    TMP DP  RH WIND       PRES   REMARKS
BEMIDJI        PTSUNNY   80  68  66 SW8       29.79S
PARK RAPIDS    MOSUNNY   84  66  54 SW13      29.80F
WADENA         MOSUNNY   82  64  54 S9        29.81S
DETROIT LAKES  PTSUNNY   82  64  54 SW15G21   29.80S
MOORHEAD       PTSUNNY   82  72  69 SW8       29.76R
FERGUS FALLS   SUNNY     82  66  57 S10       29.78S
ELBOW LAKE     FAIR      82  68  62 S13       29.80R
MORRIS MN      MOSUNNY   82  66  57 SE14      29.79R
STAPLES        SUNNY     81  64  57 S12       29.82S
WHEATON        MOSUNNY   82  64  54 S12       29.79R
$$
  *****  WEATHER ELSEWHERE ACROSS MINNESOTA  *****

CITY           SKY/WX    TMP DP  RH WIND       PRES   REMARKS
DULUTH         MOSUNNY   77  64  64 S13       29.88S
INTRNTL FALLS  CLOUDY    77  68  73 S3        29.79S
ELY            MOSUNNY   79  63  57 SW9G17    29.85S
CLOQUET        MOSUNNY   79  63  57 S13G18    29.87R
BRAINERD       MOSUNNY   81  64  56 SW10      29.84R
HIBBING        PTSUNNY   80  66  62 S10       29.84R
ALEXANDRIA     SUNNY     81  65  58 S8        29.84R
SAINT CLOUD    PTSUNNY   79  65  62 S14       29.86R
MINNEAPOLIS    CLOUDY    80  65  59 S15G22    29.87F
$$

  *****  WEATHER ACROSS SOUTH DAKOTA  *****

CITY           SKY/WX    TMP DP  RH WIND       PRES   REMARKS
SIOUX FALLS    MOSUNNY   82  69  64 S12G23    29.81F
BROOKINGS      MOSUNNY   82  68  61 S20G25    29.82R
WATERTOWN      MOSUNNY   83  65  54 S21G33    29.78F
HURON          SUNNY     85  71  63 S13       29.75S HX  90
SISSETON         N/A     86  65  49 SW12G23   29.76R
ABERDEEN       SUNNY     83  70  64 S15       29.76R
MITCHELL       SUNNY     85  69  58 S21G29    29.77S
PIERRE         PTSUNNY   83  69  62 NE3       29.77R
MOBRIDGE       CLOUDY    73  70  90 N20G28    29.80R
RAPID CITY     PTSUNNY   78  63  59 NE15      29.85R
$$

  *****  SOME WEATHER IN NEARBY STATES *****

CITY           SKY/WX    TMP DP  RH WIND       PRES   REMARKS
GLASGOW MT     PTSUNNY   70  49  47 N17G25    30.03R
GREAT FALLS MT LGT RAIN  51  50  96 N12       30.17S FOG
CHEYENNE WY    SUNNY     87  52  29 W8        30.03S
SCOTTSBLUFF NE SUNNY     86  61  42 S6        29.87S
OMAHA NE       CLOUDY    75  67  76 S3        29.92F
DES MOINES IA  CLOUDY    81  68  64 S13       29.98S
DAVENPORT IA   SUNNY     79  65  62 S9        30.05F
CHICAGO IL     MOSUNNY   80  60  50 S10       30.08S
EAU CLAIRE WI  MOSUNNY   80  62  54 S17       29.94F HAZE
LA CROSSE WI   MOSUNNY   81  65  58 S12       29.99S
$$

  *****  SOME NATIONAL WEATHER *****

CITY           SKY/WX    TMP DP  RH WIND       PRES   REMARKS
LA GUARDIA NY  PTSUNNY   81  60  48 VRB6      30.11F
RALEIGH NC     PTSUNNY   86  71  60 SW6       30.12S HX  91
ATLANTA GA     PTSUNNY   78  66  66 W10       30.15S
NEW ORLEANS LA CLOUDY    87  73  62 SW7       30.12F HX  94
OKLAHOMA CITY  MOSUNNY   88  73  61 S15       29.99S HX  95
ALBUQUERQUE NM PTSUNNY   79  56  45 VRB5      30.15F
SALT LAKE CITY CLOUDY    75  65  70 VRB6      30.05S
LOS ANGELES CA CLOUDY    65  60  84 W5        29.99S
BOISE ID       CLOUDY    82  53  36 N8        29.91R
SEATTLE WA     MOSUNNY   77  51  40 N9        29.86R
$$

*** WEATHER ACROSS MANITOBA...SASKATCHEWAN AND ONTARIO ***
                ***ONTARIO***

CITY           SKY/WX    TMP DP  RH WIND       PRES   REMARKS
GERALDTON      PTSUNNY   73  63  68 SW12      29.88F
THUNDER BAY    CLOUDY    66  57  72 NE10      29.88F
SIOUX LOOKOUT  CLOUDY    73  64  73 SE3       29.79F
TORONTO        MOSUNNY   77  61  57 SE9       30.12S
BIG TROUT LK   SUNNY     66  59  77 W10       29.69S HAZE
PICKLE LAKE    PTSUNNY   73  61  64 NW8       29.76F
DRYDEN         CLOUDY    73  63  68 S12       29.80F
KENORA         TSTM      68  64  88 S9        29.79S
$$
                *** MANITOBA***

CITY           SKY/WX    TMP DP  RH WIND       PRES   REMARKS
BRANDON        CLOUDY    66  61  82 CALM      29.84R SMOKE
DAUPHIN        MOSUNNY   68  55  64 W6        29.83S HAZE
ISLAND LAKE    CLOUDY    63  59  88 W6        29.69F SMOKE
PILOT MOUND      N/A     66  63  88 N8          N/A
THE PAS        CLOUDY    57  45  62 NW16G24   29.85R
THOMPSON       LGT RAIN  46  41  81 NW13G25   29.76R
WINNIPEG       LGT RAIN  66  64  94 NE3       29.78S SMOKE
LYNN LAKE      CLOUDY    45  43  93 N14G21    29.92R
CHURCHILL      LGT RAIN  41  39  93 NE30G40   29.72R FOG
GILLAM         DRIZZLE   48  43  81 NW17G24   29.67
$$
                ***SASKATCHEWAN***

CITY           SKY/WX    TMP DP  RH WIND       PRES   REMARKS
ESTEVAN        CLOUDY    66  57  72 NW16G23   29.92R SMOKE
KINDERSLEY     PTSUNNY   59  50  72 NW14      30.07R
LLOYDMINSTER   CLOUDY    55  48  76 NW9       30.08R
PRINCE ALBERT  LGT RAIN  59  52  77 NW13      29.97R SMOKE
REGINA         PTSUNNY   66  50  55 NW17G24   29.97S SMOKE


USA.gov is the U.S. government's official web portal to all federal, state and local government web resources and services.